Regional Weather Roundup
Issued by NWS

Home | Current Version | Previous Version | Graphics & Text | Print | Product List | Glossary Off
Versions: 1 2 3 4 5 6 7 8 9 10 11 12 13 14 15 16 17 18 19 20 21 22 23 24 25 26 27 28 29 30 31 32 33 34 35 36 37 38 39 40 41 42 43 44 45 46 47 48 49 50

000
ASUS43 KDTX 030710
RWRMI
MICHIGAN HOURLY REGIONAL WEATHER ROUNDUP
NATIONAL WEATHER SERVICE DETROIT/PONTIAC MI
300 AM EDT THU SEP 03 2015

NOTE: "FAIR" INDICATES FEW OR NO CLOUDS BELOW 12,000 FEET WITH NO
SIGNIFICANT WEATHER AND/OR OBSTRUCTION TO VISIBILITY.

MIZ047>049-052>055-059>063-066>070-074>076-081>083-030800-
SOUTHEAST LOWER MICHIGAN

CITY           SKY/WX    TMP DP  RH WIND       PRES   REMARKS
ALMA           CLEAR     67  67  98 CALM      29.96F FOG
ANN ARBOR      PTCLDY    69  67  93 W6        29.97F FOG
BAD AXE        PTCLDY    65  64  98 CALM      29.98S FOG
CARO           PTCLDY    64  64  99 CALM      29.97F
DETROIT CITY   MOCLDY    75  66  73 NW3       29.96S
DETROIT        MOCLDY    73  68  84 SW6       29.96F
FLINT          MOCLDY    70  65  84 E5        29.97S
GROSSE ILE     PTCLDY    73  70  88 CALM      29.95S
HILLSDALE      MOCLDY    68  68 100 CALM      30.01S FOG
HOWELL         PTCLDY    69  67  95 W7        29.98S FOG

CITY           SKY/WX    TMP DP  RH WIND       PRES   REMARKS
JACKSON        MOCLDY    69  68  96 CALM      29.99F FOG
LAMBERTVILLE   MOCLDY    70  67  91 CALM      29.98S FOG
LANSING        LGT RAIN  72  66  81 E8        29.99S
LAPEER         CLOUDY    64  64 100 CALM      29.98S FOG
MASON          MOCLDY    69  66  91 CALM      29.98F FOG
MONROE         PTCLDY    71  68  91 W6        29.96S
MT. CLEMENS    MOCLDY    69  67  95 NW2       29.95R
PONTIAC        PTCLDY    69  67  93 CALM      29.97S
PORT HOPE        N/A     69  68  96 W3        29.95F
PORT HURON     PTCLDY    64  64 100 CALM      29.97S
TRI CITIES     CLEAR     67  64  90 E5        29.96F
MIDLAND        FAIR      66  65  97 CALM      29.95S FOG
TROY           PTCLDY    73  69  87 CALM      29.98S
SAGINAW HB     PTCLDY    64  64 100 E6        29.96S
$$
MIZ043>046-050>051-056>058-064>065-071>073-077>080-030800-
SOUTHWEST LOWER MICHIGAN

CITY           SKY/WX    TMP DP  RH WIND       PRES   REMARKS
BATTLE CREEK   PTCLDY    73  69  87 S5        29.99F
BENTON HARBOR  PTCLDY    69  67  93 CALM      29.96F FOG
BIG RAPIDS     PTCLDY    67  66  97 CALM      29.95F FOG
COLDWATER      PTCLDY    70  70  98 CALM      29.99F
FREMONT        FAIR      70  70 100 CALM      29.95F FOG
HOLLAND        CLEAR     68  65  90 SE3       29.96F
GRAND RAPIDS   MOCLDY    73  70  90 S5        29.96F
IONIA          MOCLDY    73  69  88 S7        29.96F
KALAMAZOO      CLEAR     70  67  90 S3        29.98F
LUDINGTON      MOCLDY    76  69  77 S6        29.92F
MARSHALL       MOCLDY    69  67  94 CALM      29.98F
MOUNT PLEASANT CLEAR     69  66  91 CALM      29.95F
MUSKEGON       PTCLDY    75  65  70 W13G18    29.96S
SOUTH HAVEN    CLEAR     69  67  93 CALM      29.96F FOG
$$
MIZ016>042-030800-
NORTHERN LOWER MICHIGAN

CITY           SKY/WX    TMP DP  RH WIND       PRES   REMARKS
ALPENA         MOCLDY    66  64  93 CALM      29.96F
BEAVER ISLAND  CLOUDY    65  64  97 NE9       29.95F
BELLAIRE       PTCLDY    66  64  94 CALM      29.93F
CADILLAC       PTCLDY    64  63  96 CALM      29.96F
CHARLEVOIX     MOCLDY    68  67  96 SE5       29.96F
FRANKFORT      MOCLDY    72  70  92 CALM      29.90F
GAYLORD        MOCLDY    66  65  96 SE3       29.97F
GRAYLING         N/A     61  60  97 CALM      29.98F FOG
HARBOR SPRINGS MOCLDY    68  67  96 NE3       29.95S
HOUGHTON LAKE  FOG       61  61 100 CALM      29.97F VSB 1/4
MANISTEE       MOCLDY    70  66  88 CALM      29.92F THUNDER
OSCODA         CLEAR     67  66  97 CALM      29.95F
PELLSTON       MOCLDY    69  67  93 N6        29.97F
ROGERS CITY    CLOUDY    67  65  91 CALM      29.97F
TRAVERSE CITY  PTCLDY    71  66  84 CALM      29.91F
$$
MIZ007>008-015-030800-
EASTERN UPPER MICHIGAN

CITY           SKY/WX    TMP DP  RH WIND       PRES   REMARKS
KINROSS        CLOUDY    64  64 100 NW5       29.98F
MACKINAC ISLAN CLOUDY    66  64  90 N6        29.97F
NEWBERRY       RAIN      65  64  99 E3        29.99F
S. S. MARIE    CLOUDY    66  63  90 CALM      29.97F
MUNISING         N/A     66  63  90 NE16      29.95F
$$
MIZ004>006-011>014-085-030800-
CENTRAL UPPER MICHIGAN

CITY           SKY/WX    TMP DP  RH WIND       PRES   REMARKS
MANISTIQUE     RAIN      66  65  97 E6        29.95F
ESCANABA       CLOUDY    66  66 100 E12       29.90F
MENOMINEE      CLOUDY    66  63  88 E8        29.89F
SAWYER-GWINN   CLOUDY    64  62  93 NE8       29.96F
$$
MIZ001>003-009>011-084-030800-
WESTERN UPPER MICHIGAN

CITY           SKY/WX    TMP DP  RH WIND       PRES   REMARKS
IRON MOUNTAIN  LGT RAIN  65  63  93 N3        29.92F
HOUGHTON       FOG       63  62  97 E3        29.97F VSB 1/4
COPPER HARBOR    N/A     60  57  89 SW6       29.96F
IRONWOOD       CLOUDY    57  57 100 CALM      29.95S VSB 1/4
$$

ABBREVIATIONS USED IN REMARKS
   TC - TEMPERATURE IN CELSIUS
  WCI - WIND CHILL INDEX
   HX - HEAT INDEX
  VSB - VISIBILITY



USA.gov is the U.S. government's official web portal to all federal, state and local government web resources and services.